TimeMDT,TemperatureF,Dew PointF,Humidity,Sea Level PressureIn,VisibilityMPH,Wind Direction,Wind SpeedMPH,Gust SpeedMPH,PrecipitationIn,Events,Conditions,WindDirDegrees,DateUTC
12:53 AM,68.0,51.1,55,29.88,10.0,SSE,6.9,-,N/A,,Clear,160,2013-09-16 06:53:00
1:53 AM,66.9,50.0,54,29.88,10.0,SSE,8.1,-,N/A,,Clear,150,2013-09-16 07:53:00
2:53 AM,66.9,50.0,54,29.88,10.0,SSE,9.2,-,N/A,,Clear,160,2013-09-16 08:53:00
3:53 AM,66.0,51.1,59,29.88,10.0,SSE,6.9,-,N/A,,Partly Cloudy,160,2013-09-16 09:53:00
4:53 AM,68.0,53.1,59,29.88,10.0,SSE,12.7,-,N/A,,Partly Cloudy,160,2013-09-16 10:53:00
5:53 AM,68.0,53.1,59,29.87,10.0,SSE,12.7,-,N/A,,Scattered Clouds,160,2013-09-16 11:53:00
6:53 AM,68.0,52.0,56,29.90,10.0,SE,13.8,-,N/A,,Mostly Cloudy,140,2013-09-16 12:53:00
7:53 AM,68.0,52.0,56,29.91,10.0,SSE,10.4,-,0.00,,Mostly Cloudy,160,2013-09-16 13:53:00
8:53 AM,69.1,53.1,57,29.91,10.0,SE,10.4,-,N/A,,Mostly Cloudy,130,2013-09-16 14:53:00
9:53 AM,73.9,54.0,50,29.92,10.0,SE,13.8,-,N/A,,Scattered Clouds,140,2013-09-16 15:53:00
10:53 AM,73.9,52.0,46,29.91,10.0,SE,13.8,-,N/A,,Scattered Clouds,140,2013-09-16 16:53:00
11:53 AM,80.1,54.0,40,29.89,10.0,SE,15.0,-,N/A,,Scattered Clouds,130,2013-09-16 17:53:00
12:53 PM,84.9,50.0,30,29.87,10.0,South,16.1,-,N/A,,Scattered Clouds,180,2013-09-16 18:53:00
1:53 PM,86.0,48.9,28,29.86,10.0,South,17.3,23.0,N/A,,Scattered Clouds,170,2013-09-16 19:53:00
2:53 PM,88.0,48.0,25,29.81,10.0,South,16.1,21.9,N/A,,Scattered Clouds,180,2013-09-16 20:53:00
3:53 PM,89.1,48.0,24,29.79,10.0,South,10.4,-,N/A,,Scattered Clouds,170,2013-09-16 21:53:00
4:53 PM,88.0,46.9,24,29.77,10.0,SSE,8.1,-,N/A,,Mostly Cloudy,150,2013-09-16 22:53:00
5:53 PM,89.1,46.0,22,29.75,10.0,South,10.4,-,N/A,,Scattered Clouds,170,2013-09-16 23:53:00
6:53 PM,86.0,46.0,25,29.74,10.0,South,8.1,-,N/A,,Scattered Clouds,170,2013-09-17 00:53:00
7:53 PM,79.0,50.0,36,29.75,10.0,WSW,4.6,-,N/A,,Scattered Clouds,240,2013-09-17 01:53:00
8:53 PM,75.9,50.0,40,29.77,10.0,ESE,8.1,-,N/A,,Partly Cloudy,120,2013-09-17 02:53:00
9:53 PM,73.9,48.9,41,29.77,10.0,SE,8.1,-,N/A,,Partly Cloudy,130,2013-09-17 03:53:00
10:53 PM,73.9,46.9,38,29.77,10.0,SE,8.1,-,N/A,,Scattered Clouds,140,2013-09-17 04:53:00
11:53 PM,75.9,50.0,40,29.75,10.0,SSE,12.7,-,N/A,,Scattered Clouds,150,2013-09-17 05:53:00